Location: Home
(42.5358°N, 72.7383°W)
Time: 19:32:46
(UTC-05:00)

Transit 4A - Pass Details

Date: 01 December 2021
Orbit: 863 x 981 km, 66.8° (Epoch: 23 January)

Event Time Altitude Azimuth Distance (km) Brightness Sun altitude
Rises 06:26:58 0° 312° (NW) 3,635 - -6.5°
Exits shadow 06:29:28 - 299° (WNW) 2,965 9.8 -6.1°
Reaches altitude 10° 06:30:41 10° 290° (WNW) 2,703 9.6 -5.9°
Maximum altitude 06:34:02 15° 258° (WSW) 2,362 9.6 -5.3°
Drops below altitude 10° 06:37:26 10° 225° (SW) 2,718 10.2 -4.7°
Sets 06:41:12 0° 203° (SSW) 3,667 11.1 -4.1°
